Vertical_Velocity
-1 2 2 2 2 2 0 0 1 0 1 3 3 2 1 -0 0 1 0 1 2 2 2 2 2 1 1 1 0 2 1 1 -0 -0 1 1 1 -0 -1 -2 -1 1 2
-1 -1 0 1 1 2 0 0 1 1 1 2 3 3 2 2 -2 -1 0 2 2 3 3 3 2 1 1 3 1 -0 0 -1 -1 0 1 2 2 2 1 0 0 0 -0
-0 -0 -1 1 1 -0 -0 1 1 1 0 -0 1 1 2 3 4 1 -0 1 1 1 1 1 2 1 1 2 2 2 3 2 1 1 -0 1 1 1 -0 1 0 0 1
-2 -1 1 -1 -3 -0 0 2 0 1 1 -0 0 -2 -1 1 1 2 0 -0 -0 1 2 3 4 3 5 3 2 2 2 1 1 2 2 1 0 -0 1 1 0 -0 -1
-3 -1 -4 -0 -0 -3 0 0 1 1 2 -2 -2 -2 1 -0 2 0 3 1 0 0 0 0 0 1 2 4 4 3 3 2 2 1 0 0 0 0 1 1 -0 -1 -1
4 -8 3 -1 -5 -0 1 0 1 -3 -1 -2 -2 1 -2 1 -0 -0 4 -1 1 3 1 1 0 2 2 3 3 3 3 3 4 4 4 3 2 1 1 0 1 1 -0
-3 5 1 -1 -2 -4 -0 -2 -2 -1 -0 -3 -3 1 1 -1 2 1 3 2 1 -1 -1 2 1 2 1 0 1 2 3 3 2 1 2 3 3 2 3 4 1 -1 -0
3 -6 -2 3 -3 -3 -2 0 -3 -2 -0 -3 -1 -2 1 -0 3 1 -2 -2 -1 -5 -1 -1 -1 2 2 3 0 -2 -2 -0 -0 1 3 2 2 3 2 2 3 0 0
6 -2 -4 3 5 3 -3 -2 1 -2 3 -4 -3 -9 -2 8 -4 -4 -0 0 -3 -1 1 0 1 1 -2 1 2 1 0 -0 1 -1 -0 0 -0 0 1 4 3 4 2
1 -2 -1 -3 6 1 6 4 -2 5 -2 10 -5 -5 -10 -1 -3 -5 -10 -1 -1 3 0 1 -0 -2 -3 -1 -2 -3 -4 -3 -0 -2 -1 -0 1 -0 1 1 3 1 2
2 -0 2 2 2 0 1 7 5 1 -1 4 4 5 3 -3 -1 -7 5 5 -13 2 1 2 0 3 4 -1 -3 -4 -4 -2 0 -2 1 0 1 3 0 -0 3 1 1
-1 3 0 3 -0 -2 -4 -11 5 -4 9 14 11 6 0 -3 -0 -7 -11 13 -3 13 -5 4 2 0 -3 -3 -2 0 -1 -2 -2 -1 -1 -2 -3 -2 1 0 -0 1 2
4 -1 3 1 3 -0 2 -14 -11 85 66 -10 -12 11 3 -3 2 -0 -11 -0 -8 19 -0 -2 -0 0 1 -3 1 0 -1 -2 -2 -1 -2 -2 0 -2 -3 -2 1 2 2
4 6 4 -3 -1 17 9 24 10 9 -10 33 -4 16 4 19 -2 -1 -7 -6 -8 -2 8 9 1 5 -0 -0 -1 -0 -5 -3 -2 -4 -4 -3 1 1 0 2 6 1 4
2 5 6 4 4 4 10 3 -8 1 37 75 2 22 8 8 -3 -3 -2 -4 -10 -13 10 3 5 6 6 8 3 -2 -2 6 2 -2 -3 -5 -5 1 3 -1 -1 3 -0
1 -0 3 4 5 1 9 8 -2 4 4 29 11 9 42 -3 -3 1 -2 3 -7 1 -27 5 18 6 7 -3 -2 -3 -0 -1 4 2 -2 -1 -5 1 4 2 8 1 1
2 2 2 4 10 3 -1 4 1 4 -3 -4 -7 29 0 5 13 13 1 32 19 17 -35 3 3 32 14 11 15 5 -7 -7 -11 -6 -9 -6 -6 7 2 8 4 5 13
-0 2 3 1 6 5 -1 3 -0 3 -4 -9 1 1 -9 -5 -12 -8 1 0 4 9 -9 -22 -3 -0 6 -1 -7 5 -7 -0 5 13 5 -12 -5 3 9 8 7 3 2
2 2 -1 -6 2 3 -5 -1 2 1 -5 -5 -6 -0 -1 -7 -7 -4 -12 -3 -8 -1 8 -9 6 1 8 4 -1 -5 9 1 -5 -14 8 34 11 -11 -4 25 80 28 -10
2 0 -2 -2 -0 3 -1 -5 -5 -3 -2 0 -8 -4 -2 -1 1 -12 -11 -9 -11 -6 -4 -17 -10 -3 2 6 -6 3 -10 1 -14 1 29 32 -21 26 14 82 1 44 6
2 3 2 1 -2 -3 1 1 -4 -7 -6 -5 -4 -1 -3 -6 -3 0 0 -7 -3 -8 -8 -10 -6 -8 -13 -8 -15 -6 -6 5 -1 -1 -7 9 -4 16 28 5 10 10 -3
1 0 -0 1 0 -1 -5 -3 2 1 1 -3 -1 -0 0 -6 -5 -4 -2 1 -4 -4 -6 -5 -5 -8 -2 -10 -2 -5 -6 3 2 -10 -4 -10 -4 -5 -5 28 1 -2 -8
-0 -1 -1 -1 -1 -2 -1 -3 -5 -2 -2 -3 -3 -4 -1 -1 -4 -2 -3 -1 1 1 1 -3 -3 -8 0 -6 -6 -3 -1 1 6 3 -7 -13 -4 -8 -2 1 -11 0 -1
-3 -2 -3 -3 -5 -6 -5 -5 -3 -6 -6 -6 -3 -3 -4 -2 -0 -0 -0 -1 -4 -3 -8 -2 -1 4 -5 2 -6 1 4 1 1 7 -2 0 -6 -8 0 -0 4 -2 6
2 1 -1 -4 -6 -7 -10 -9 -6 -4 -3 -3 -2 -4 -5 1 -2 -0 3 -1 -2 -0 -7 -2 3 3 3 2 2 -3 -2 0 2 8 0 -1 8 0 4 -10 26 10 -7
-5 -3 -2 -2 -4 -2 -9 -8 -7 -5 -5 -2 -0 1 -1 0 0 -1 -0 1 2 -0 -3 -4 -1 2 2 3 -0 2 4 2 -2 7 -1 3 9 3 0 8 12 -5 18
Height
5869 5870 5870 5870 5870 5871 5871 5871 5872 5873 5874 5875 5876 5876 5877 5877 5876 5876 5877 5877 5877 5877 5877 5876 5875 5875 5874 5873 5872 5871 5869 5867 5866 5864 5862 5860 5858 5856 5855 5853 5851 5848 5845
5864 5864 5866 5866 5866 5867 5867 5867 5867 5868 5869 5870 5870 5871 5871 5871 5871 5870 5871 5871 5871 5871 5870 5870 5869 5869 5868 5868 5867 5865 5864 5863 5861 5860 5858 5857 5855 5853 5852 5850 5847 5844 5841
5860 5859 5859 5861 5861 5862 5863 5863 5863 5863 5864 5864 5863 5864 5864 5865 5866 5865 5865 5865 5865 5865 5865 5864 5863 5863 5862 5861 5860 5859 5858 5857 5856 5855 5854 5853 5852 5850 5848 5846 5843 5841 5837
5854 5854 5855 5854 5854 5856 5857 5858 5858 5858 5858 5858 5857 5856 5856 5857 5858 5859 5860 5860 5859 5859 5859 5859 5858 5857 5857 5856 5854 5853 5852 5852 5851 5851 5850 5849 5847 5845 5843 5841 5839 5836 5833
5847 5847 5847 5848 5847 5848 5850 5851 5851 5852 5851 5851 5850 5849 5850 5850 5850 5852 5853 5853 5852 5852 5852 5851 5851 5851 5851 5851 5849 5848 5847 5847 5846 5845 5844 5843 5841 5840 5838 5836 5833 5831 5828
5838 5840 5841 5841 5841 5841 5842 5843 5843 5843 5844 5844 5843 5842 5842 5842 5842 5843 5844 5844 5845 5845 5845 5844 5843 5844 5843 5843 5843 5842 5841 5841 5840 5839 5838 5837 5836 5834 5833 5830 5827 5825 5822
5825 5828 5831 5831 5832 5832 5833 5833 5833 5834 5834 5834 5832 5834 5834 5834 5835 5836 5834 5835 5835 5833 5834 5836 5836 5837 5836 5836 5835 5834 5833 5833 5832 5831 5831 5830 5830 5828 5826 5823 5820 5818 5816
5815 5816 5819 5821 5822 5822 5822 5823 5823 5824 5824 5824 5824 5823 5825 5827 5829 5827 5825 5826 5826 5824 5826 5825 5825 5826 5826 5826 5827 5826 5827 5826 5824 5823 5823 5822 5820 5818 5816 5814 5813 5811 5808
5800 5802 5806 5809 5812 5813 5814 5815 5814 5814 5815 5814 5813 5811 5813 5818 5818 5818 5817 5817 5816 5816 5817 5816 5815 5815 5815 5815 5815 5816 5816 5816 5815 5814 5812 5811 5810 5808 5806 5805 5803 5801 5799
5786 5788 5790 5794 5797 5800 5803 5804 5803 5804 5802 5805 5802 5801 5799 5803 5806 5808 5807 5807 5807 5807 5807 5806 5805 5804 5804 5805 5805 5806 5806 5805 5804 5803 5803 5801 5800 5799 5797 5795 5793 5790 5788
5771 5774 5776 5778 5782 5783 5787 5790 5789 5790 5789 5790 5789 5789 5788 5786 5790 5793 5798 5799 5794 5796 5796 5795 5794 5794 5796 5795 5795 5795 5795 5793 5792 5792 5792 5791 5790 5789 5787 5785 5782 5780 5777
5755 5758 5762 5763 5765 5768 5771 5775 5769 5772 5768 5766 5770 5773 5774 5774 5773 5774 5778 5787 5787 5788 5784 5784 5783 5783 5784 5785 5786 5786 5785 5783 5781 5779 5778 5778 5777 5776 5775 5774 5771 5769 5767
5738 5742 5745 5746 5750 5753 5754 5755 5755 5745 5745 5751 5751 5751 5754 5756 5757 5759 5758 5761 5770 5777 5774 5771 5773 5772 5771 5771 5773 5773 5772 5770 5770 5768 5765 5763 5762 5762 5760 5759 5758 5757 5757
5722 5726 5729 5730 5732 5737 5734 5734 5734 5737 5735 5730 5732 5732 5734 5739 5738 5740 5742 5741 5744 5754 5759 5759 5759 5758 5759 5759 5758 5758 5757 5757 5756 5754 5752 5749 5748 5748 5747 5745 5742 5742 5741
5703 5708 5712 5714 5716 5718 5715 5717 5714 5716 5718 5713 5718 5714 5714 5715 5718 5722 5720 5723 5726 5726 5735 5742 5745 5746 5746 5745 5744 5744 5744 5744 5742 5738 5739 5738 5735 5733 5733 5730 5728 5726 5727
5685 5689 5693 5696 5698 5701 5699 5699 5698 5697 5694 5694 5697 5700 5697 5697 5697 5703 5704 5705 5706 5707 5707 5716 5725 5726 5726 5726 5726 5724 5725 5724 5725 5724 5722 5722 5722 5719 5717 5716 5714 5711 5711
5666 5672 5676 5679 5680 5682 5685 5682 5683 5680 5678 5677 5676 5678 5679 5683 5683 5686 5683 5687 5687 5687 5687 5691 5697 5706 5704 5706 5708 5707 5705 5705 5702 5704 5704 5702 5701 5700 5700 5697 5696 5693 5692
5651 5653 5659 5662 5663 5662 5667 5665 5664 5663 5663 5664 5660 5660 5662 5667 5668 5670 5666 5666 5667 5667 5671 5673 5681 5683 5684 5685 5686 5684 5683 5682 5680 5679 5676 5681 5681 5683 5683 5682 5678 5678 5674
5644 5645 5647 5649 5649 5646 5646 5648 5644 5643 5643 5643 5643 5639 5639 5643 5646 5646 5644 5645 5651 5651 5653 5656 5659 5663 5666 5664 5665 5665 5668 5659 5656 5649 5656 5662 5667 5666 5669 5660 5653 5658 5659
5641 5640 5639 5639 5638 5635 5632 5630 5626 5623 5620 5618 5618 5618 5617 5620 5621 5623 5623 5623 5626 5632 5633 5636 5640 5641 5644 5646 5644 5646 5647 5649 5644 5641 5649 5645 5650 5643 5648 5645 5651 5647 5649
5637 5634 5631 5629 5625 5622 5619 5616 5612 5608 5604 5599 5595 5593 5590 5591 5594 5593 5598 5598 5601 5606 5608 5612 5618 5623 5624 5626 5628 5628 5632 5632 5630 5631 5632 5635 5635 5636 5639 5637 5636 5635 5633
5632 5628 5624 5619 5614 5609 5604 5599 5596 5592 5586 5580 5576 5571 5568 5567 5568 5569 5572 5574 5576 5578 5582 5585 5590 5595 5599 5604 5607 5610 5611 5612 5613 5614 5616 5615 5618 5619 5621 5622 5620 5618 5617
5626 5621 5615 5610 5604 5598 5591 5585 5578 5571 5566 5561 5555 5549 5546 5543 5543 5545 5545 5544 5547 5552 5555 5560 5565 5569 5574 5576 5582 5585 5588 5590 5590 5591 5596 5596 5598 5599 5602 5604 5602 5604 5605
5616 5611 5604 5597 5590 5583 5575 5567 5559 5551 5542 5535 5531 5527 5524 5521 5518 5520 5521 5520 5519 5521 5524 5533 5540 5543 5545 5547 5553 5558 5562 5568 5570 5570 5573 5577 5579 5581 5587 5587 5588 5590 5589
5607 5599 5590 5582 5574 5564 5555 5546 5537 5528 5519 5511 5504 5499 5498 5498 5495 5494 5494 5496 5498 5497 5497 5503 5511 5518 5522 5525 5528 5534 5538 5542 5548 5550 5551 5556 5558 5559 5564 5569 5567 5569 5572
5597 5588 5578 5568 5557 5546 5534 5522 5510 5499 5492 5486 5480 5475 5473 5472 5472 5474 5475 5476 5478 5478 5479 5480 5483 5488 5495 5501 5504 5510 5514 5520 5524 5527 5528 5535 5536 5540 5543 5547 5548 5550 5551